Regional Weather Roundup
Issued by NWS

Home | Current Version | Previous Version | Text Only | Print | Product List | Glossary Off
Versions: 1 2 3 4 5 6 7 8 9 10 11 12 13 14 15 16 17 18 19 20 21 22 23 24 25 26 27 28 29 30 31 32 33 34 35 36 37 38 39 40 41 42 43 44 45 46 47 48 49 50

000
ASUS43 KLMK 011010
RWRKY
KENTUCKY REGIONAL WEATHER ROUNDUP
NATIONAL WEATHER SERVICE LOUISVILLE KY
600 AM EDT TUE SEP 01 2015

NOTE "FAIR" INDICATES FEW OR NO CLOUDS BELOW 12,000 FEET
WITH NO SIGNIFICANT WEATHER AND/OR OBSTRUCTIONS TO VISIBILITY.

KYZ001>023-026-027-061>063-070>075-011100-
WESTERN AND SOUTH CENTRAL KENTUCKY

CITY           SKY/WX    TMP DP  RH WIND       PRES   REMARKS
PADUCAH        CLEAR     67  64  90 CALM      30.10R
HENDERSON      PTCLDY    66  63  88 CALM      30.10R
OWENSBORO      CLOUDY    69  67  93 CALM      30.12R
HOPKINSVILLE   CLEAR     67  66  94 CALM      30.12R
BOWLING GREEN  CLEAR     67  65  93 CALM      30.13R FOG
GLASGOW        CLEAR     63  63 100 CALM      30.13S FOG
$$

KYZ024-025-028>034-038-045-046-053-011100-
NORTH CENTRAL KENTUCKY

CITY           SKY/WX    TMP DP  RH WIND       PRES   REMARKS
LOUISVILLE/SDF CLEAR     70  65  84 CALM      30.12R
LOUISVILLE/LOU CLEAR     69  65  86 CALM      30.13R
FORT KNOX      FOG       64  63  94 CALM      30.12R VSB 1/4
$$

KYZ035>037-039>044-047>052-055>060-089>105-011100-
NORTHEAST KENTUCKY

CITY           SKY/WX    TMP DP  RH WIND       PRES   REMARKS
LEXINGTON      CLEAR     65  63  93 S5        30.14S
COVINGTON      CLEAR     67  65  93 CALM      30.13R
FRANKFORT      CLEAR     64  61  90 CALM      30.13R
$$

KYZ054-064>069-076>088-106>120-011100-
SOUTHEAST KENTUCKY

CITY           SKY/WX    TMP DP  RH WIND       PRES   REMARKS
JACKSON        CLEAR     68  65  90 W3        30.16R
LONDON         CLEAR     66  62  87 CALM      30.15R
SOMERSET       CLEAR     63  63 100 CALM      30.15S FOG
MIDDLESBORO    FOG       63  63 100 CALM      30.17R VSB 1/2
MONTICELLO     FOG       61  61 100 CALM      30.17R VSB<1/4
$$




USA.gov is the U.S. government's official web portal to all federal, state and local government web resources and services.